EW9532 Weather Reports


time (UTC)temp
F
wind
direction
speed
knots
gust
knots
rain 1hr
in
rain 24hr
in
rain mn
in
humidity
%
barometer
mb
20240527195229 101 140 1.7 7.8 0.00 0.00 0.00 55 1009.3
20240527194729 100 325 2.6 6.1 0.00 0.00 0.00 55 1009.1
20240527194522 100 95 2.6 6.1 0.00 0.00 0.00 55 1009.4
20240527193733 100 44 2.6 7.0 0.00 0.00 0.00 57 1009.4
20240527193540 99 342 3.5 7.0 0.00 0.00 0.00 57 1009.6
20240527193023 99 54 3.5 6.1 0.00 0.00 0.00 56 1009.6
20240527192540 99 41 1.7 6.1 0.00 0.00 0.00 58 1009.7
20240527191732 98 61 2.6 7.0 0.00 0.00 0.00 59 1009.7
20240527191230 98 147 3.5 7.0 0.00 0.00 0.00 58 1009.7
20240527190733 98 20 2.6 5.2 0.00 0.00 0.00 59 1009.6
20240527190226 98 27 3.5 5.2 0.00 0.00 0.00 58 1009.8
20240527185727 98 88 1.7 6.1 0.00 0.00 0.00 59 1009.8
20240527185223 98 333 3.5 6.1 0.00 0.00 0.00 60 1009.9
20240527184718 98 24 2.6 6.1 0.00 0.00 0.00 60 1010.0
20240527184215 98 246 2.6 5.2 0.00 0.00 0.00 60 1010.1
20240527183935 97 232 1.7 5.2 0.00 0.00 0.00 62 1010.2
20240527182903 96 27 2.6 5.2 0.00 0.00 0.00 62 1010.3
20240527182435 96 356 1.7 5.2 0.00 0.00 0.00 63 1010.4
20240527181401 96 131 1.7 3.5 0.00 0.00 0.00 63 1010.4
20240527181155 96 176 1.7 4.3 0.00 0.00 0.00 64 1010.3
20240527180403 95 7 1.7 5.2 0.00 0.00 0.00 66 1010.3
20240527180154 95 271 1.7 5.2 0.00 0.00 0.00 65 1010.5
20240527175402 95 29 1.7 5.2 0.00 0.00 0.00 65 1010.8
20240527174902 95 3 3.5 5.2 0.00 0.00 0.00 66 1010.6
20240527174403 95 296 1.7 5.2 0.00 0.00 0.00 65 1010.6
20240527173903 94 322 1.7 5.2 0.00 0.00 0.00 68 1010.6
20240527173657 94 17 1.7 4.3 0.00 0.00 0.00 68 1010.7
20240527172904 93 353 2.6 6.1 0.00 0.00 0.00 68 1010.6
20240527172405 94 234 2.6 6.1 0.00 0.00 0.00 69 1010.7
20240527171902 94 44 2.6 4.3 0.00 0.00 0.00 69 1010.7
20240527171403 93 274 0.9 4.3 0.00 0.00 0.00 70 1010.9
20240527170904 93 256 2.6 4.3 0.00 0.00 0.00 70 1010.8
20240527170402 92 230 2.6 4.3 0.00 0.00 0.00 70 1011.0
20240527165903 92 227 1.7 3.5 0.00 0.00 0.00 71 1010.9
20240527165402 92 207 1.7 5.2 0.00 0.00 0.00 72 1011.1
20240527165152 92 181 1.7 7.0 0.00 0.00 0.00 72 1010.9
20240527164400 92 188 3.5 7.0 0.00 0.00 0.00 72 1010.9
20240527164155 91 143 1.7 5.2 0.00 0.00 0.00 73 1011.1
20240527163404 91 340 1.7 5.2 0.00 0.00 0.00 73 1011.2
20240527162903 91 29 1.7 4.3 0.00 0.00 0.00 73 1011.2
20240527162403 91 220 2.6 4.3 0.00 0.00 0.00 74 1011.2
20240527161859 91 171 1.7 5.2 0.00 0.00 0.00 74 1011.1
20240527161356 90 146 1.7 5.2 0.00 0.00 0.00 74 1011.0
20240527160853 90 92 2.6 5.2 0.00 0.00 0.00 75 1010.9
20240527160349 90 340 1.7 5.2 0.00 0.00 0.00 76 1010.9
20240527160134 90 233 1.7 5.2 0.00 0.00 0.00 75 1010.9
20240527155341 90 83 1.7 4.3 0.00 0.00 0.00 76 1010.8
20240527154837 90 165 2.6 4.3 0.00 0.00 0.00 76 1010.8
20240527154330 89 132 2.6 4.3 0.00 0.00 0.00 77 1010.8
20240527153835 89 276 3.5 4.3 0.00 0.00 0.00 78 1010.8
20240527153729 89 122 2.6 4.3 0.00 0.00 0.00 78 1010.8
20240527153230 88 161 2.6 4.3 0.00 0.00 0.00 78 1010.8
20240527152804 88 86 1.7 4.3 0.00 0.00 0.00 79 1010.8
20240527151733 88 28 2.6 6.1 0.00 0.00 0.00 80 1010.8
20240527151521 88 338 2.6 6.1 0.00 0.00 0.00 80 1010.6
20240527150732 88 34 1.7 6.1 0.00 0.00 0.00 80 1010.7
20240527150228 88 280 1.7 6.1 0.00 0.00 0.00 80 1010.6
20240527145723 88 70 3.5 5.2 0.00 0.00 0.00 81 1010.5
20240527145224 87 171 3.5 5.2 0.00 0.00 0.00 81 1010.5
20240527144723 87 214 2.6 5.2 0.00 0.00 0.00 82 1010.4
20240527144219 87 20 2.6 5.2 0.00 0.00 0.00 82 1010.5
20240527143716 87 356 2.6 5.2 0.00 0.00 0.00 82 1010.3
20240527143215 87 250 3.5 5.2 0.00 0.00 0.00 83 1010.3
20240527142711 86 211 2.6 5.2 0.00 0.00 0.00 83 1010.6
20240527142207 86 42 1.7 4.3 0.00 0.00 0.00 83 1010.5
20240527141704 86 129 1.7 5.2 0.00 0.00 0.00 83 1010.3
20240527141454 86 272 1.7 5.2 0.00 0.00 0.00 84 1010.2
20240527140954 86 289 2.6 4.3 0.00 0.00 0.00 84 1009.9
20240527140203 86 174 2.6 4.3 0.00 0.00 0.00 84 1009.9
20240527135704 86 306 1.7 5.2 0.00 0.00 0.00 85 1009.9
20240527135200 85 123 1.7 6.1 0.00 0.00 0.00 85 1009.7
20240527134702 85 243 1.7 6.1 0.00 0.00 0.00 85 1009.8
20240527134204 85 45 2.6 4.3 0.00 0.00 0.00 86 1009.8
20240527133704 85 188 2.6 5.2 0.00 0.00 0.00 86 1009.8
20240527133203 85 176 1.7 5.2 0.00 0.00 0.00 86 1009.8
20240527132955 85 306 1.7 4.3 0.00 0.00 0.00 86 1009.6
20240527132456 85 59 1.7 7.8 0.00 0.00 0.00 86 1009.3
20240527131703 85 344 3.5 7.8 0.00 0.00 0.00 87 1009.2
20240527131515 85 207 3.5 5.2 0.00 0.00 0.00 87 1009.1
20240527130704 85 240 2.6 5.2 0.00 0.00 0.00 87 1009.2
20240527130451 85 188 1.7 5.2 0.00 0.00 0.00 87 1009.1
20240527125704 85 227 2.6 4.3 0.00 0.00 0.00 87 1009.2
20240527125201 85 120 1.7 4.3 0.00 0.00 0.00 87 1009.0
20240527124954 85 160 2.6 4.3 0.00 0.00 0.00 87 1008.8
20240527124203 85 210 1.7 4.3 0.00 0.00 0.00 87 1008.7
20240527123954 85 186 1.7 6.1 0.00 0.00 0.00 87 1008.7
20240527123201 84 302 2.6 6.1 0.00 0.00 0.00 87 1008.6
20240527122955 84 216 2.6 7.0 0.00 0.00 0.00 88 1008.3
20240527122235 84 338 1.7 7.0 0.00 0.00 0.00 88 1008.3
20240527121204 84 143 1.7 4.3 0.00 0.00 0.00 88 1008.2
20240527120737 84 219 1.7 5.2 0.00 0.00 0.00 88 1008.1
20240527115703 84 283 2.6 6.1 0.00 0.00 0.00 88 1007.9
20240527115202 84 4 2.6 6.1 0.00 0.00 0.00 88 1007.8
20240527114700 84 23 1.7 5.2 0.00 0.00 0.00 88 1007.7
20240527114201 84 89 1.7 5.2 0.00 0.00 0.00 88 1007.6
20240527113702 84 32 0.9 3.5 0.00 0.00 0.00 88 1007.6
20240527113202 84 91 1.7 4.3 0.00 0.00 0.00 88 1007.6
20240527112700 84 137 0.9 4.3 0.00 0.00 0.00 88 1007.8
20240527112201 84 210 0.9 3.5 0.00 0.00 0.00 88 1007.8
20240527111701 84 155 1.7 3.5 0.00 0.00 0.00 88 1007.6
20240527111204 84 258 1.7 3.5 0.00 0.00 0.00 88 1007.5
20240527110704 84 60 1.7 4.3 0.00 0.00 0.00 88 1007.6
20240527110205 84 258 1.7 4.3 0.00 0.00 0.00 88 1007.5
20240527105704 84 147 1.7 4.3 0.00 0.00 0.00 88 1007.7
20240527105451 84 222 0.9 4.3 0.00 0.00 0.00 88 1007.6
20240527104700 84 188 1.7 4.3 0.00 0.00 0.00 88 1007.6
20240527104203 84 315 1.7 5.2 0.00 0.00 0.00 88 1007.4
20240527103956 84 13 1.7 5.2 0.00 0.00 0.00 88 1007.4
20240527103201 84 141 1.7 5.2 0.00 0.00 0.00 88 1007.5
20240527102702 84 229 0.9 5.2 0.00 0.00 0.00 88 1007.5
20240527102159 84 270 1.7 5.2 0.00 0.00 0.00 88 1007.5
20240527101656 84 37 2.6 4.3 0.00 0.00 0.00 88 1007.5
20240527101150 84 193 1.7 4.3 0.00 0.00 0.00 88 1007.4
20240527100718 84 247 1.7 4.3 0.00 0.00 0.00 88 1007.4
20240527095641 84 67 1.7 5.2 0.00 0.00 0.00 88 1007.3
20240527095138 84 306 1.7 5.2 0.00 0.00 0.00 88 1007.3
20240527094633 84 136 1.7 7.0 0.00 0.00 0.00 88 1007.5
20240527094144 84 253 1.7 7.0 0.00 0.00 0.00 88 1007.4
20240527093633 84 198 1.7 5.2 0.00 0.00 0.00 88 1007.5
20240527093133 84 276 2.6 4.3 0.00 0.00 0.00 88 1007.4
20240527092923 84 280 1.7 3.5 0.00 0.00 0.00 88 1007.4
20240527092133 84 242 1.7 3.5 0.00 0.00 0.00 88 1007.5
20240527091628 84 335 1.7 6.1 0.00 0.00 0.00 88 1007.3
20240527091129 84 307 2.6 6.1 0.00 0.00 0.00 87 1007.4
20240527090630 84 340 1.7 5.2 0.00 0.00 0.00 87 1007.3
20240527090129 84 116 1.7 5.2 0.00 0.00 0.00 87 1007.4
20240527085629 84 296 2.6 4.3 0.00 0.00 0.00 87 1007.3
20240527085129 84 261 1.7 7.0 0.00 0.00 0.00 87 1007.2
20240527084629 84 160 2.6 7.0 0.00 0.00 0.00 87 1007.3
20240527084128 84 321 1.7 3.5 0.00 0.00 0.00 87 1007.2
20240527083631 84 72 0.9 5.2 0.00 0.00 0.00 87 1007.1
20240527083130 84 169 2.6 5.2 0.00 0.00 0.00 87 1007.4
20240527082631 84 224 2.6 7.8 0.00 0.00 0.00 87 1007.4
20240527082131 84 137 2.6 7.8 0.00 0.00 0.00 87 1007.4
20240527081630 85 64 2.6 6.1 0.00 0.00 0.00 86 1007.5
20240527081130 85 44 1.7 6.1 0.00 0.00 0.00 86 1007.7
20240527080629 85 103 2.6 6.1 0.00 0.00 0.00 86 1007.7
20240527080129 85 221 2.6 6.1 0.00 0.00 0.00 86 1007.7
20240527075924 85 198 1.7 4.3 0.00 0.00 0.00 86 1007.8
20240527075129 85 198 1.7 6.1 0.00 0.00 0.00 86 1007.8
20240527074628 85 327 1.7 6.1 0.00 0.00 0.00 86 1007.7
20240527074130 85 144 2.6 6.1 0.00 0.00 0.00 86 1007.7
20240527073632 85 8 1.7 4.3 0.00 0.00 0.00 86 1007.8
20240527073131 85 166 0.9 3.5 0.00 0.00 0.00 85 1007.8
20240527072630 85 68 0.9 6.1 0.00 0.00 0.00 85 1007.8
20240527072424 85 224 2.6 6.1 0.00 0.00 0.00 85 1007.8
20240527071631 85 169 1.7 4.3 0.00 0.00 0.00 85 1007.9
20240527071128 85 215 1.7 5.2 0.00 0.00 0.00 85 1008.1
20240527070629 85 186 1.7 5.2 0.00 0.00 0.00 85 1007.9
20240527070129 85 88 1.7 7.0 0.00 0.00 0.00 85 1007.9
20240527065630 85 304 3.5 7.0 0.00 0.00 0.00 85 1007.8
20240527065420 84 304 1.7 5.2 0.00 0.00 0.00 85 1007.8
20240527064630 85 41 2.6 5.2 0.00 0.00 0.00 85 1007.9
20240527064129 85 333 1.7 4.3 0.00 0.00 0.00 85 1007.8
20240527063921 85 319 1.7 5.2 0.00 0.00 0.00 85 1007.8
20240527063131 84 189 2.6 7.0 0.00 0.00 0.00 85 1007.8
20240527062631 85 211 1.7 7.0 0.00 0.00 0.00 85 1007.7
20240527062130 85 120 2.6 4.3 0.00 0.00 0.00 85 1007.7
20240527061629 85 77 1.7 3.5 0.00 0.00 0.00 85 1007.7
20240527061207 85 268 2.6 4.3 0.00 0.00 0.00 85 1007.8
20240527060426 85 133 1.7 6.1 0.00 0.00 0.00 85 1007.9
20240527055630 85 267 3.5 6.1 0.00 0.00 0.00 84 1007.7
20240527055132 85 246 3.5 6.1 0.00 0.00 0.00 84 1007.7
20240527054630 85 329 3.5 5.2 0.00 0.00 0.00 84 1007.8
20240527054420 85 164 3.5 5.2 0.00 0.00 0.00 84 1007.8
20240527053631 85 224 3.5 7.0 0.00 0.00 0.00 84 1007.9
20240527053129 85 321 3.5 7.0 0.00 0.00 0.00 83 1007.9
20240527052631 85 203 2.6 6.1 0.00 0.00 0.00 83 1008.0
20240527052130 85 301 2.6 6.1 0.00 0.00 0.00 83 1008.2
20240527051629 85 165 1.7 3.5 0.00 0.00 0.00 82 1008.1
20240527051130 85 82 2.6 5.2 0.00 0.00 0.00 82 1008.1
20240527050629 85 107 1.7 5.2 0.00 0.00 0.00 82 1008.0
20240527050132 86 355 3.5 5.2 0.00 0.00 0.00 81 1008.1
20240527045634 86 230 1.7 5.2 0.00 0.00 0.00 81 1008.2
20240527045132 86 8 2.6 5.2 0.00 0.00 0.00 81 1008.1
20240527044634 86 217 3.5 6.1 0.00 0.00 0.00 80 1008.2
20240527044130 86 137 1.7 6.1 0.00 0.00 0.00 80 1008.1
20240527043629 86 309 1.7 6.1 0.00 0.00 0.00 80 1008.2
20240527043129 86 16 1.7 5.2 0.00 0.00 0.00 80 1008.2
20240527042630 86 186 3.5 7.0 0.00 0.00 0.00 79 1008.0
20240527042130 87 94 3.5 7.0 0.00 0.00 0.00 79 1008.0
20240527041704 87 102 3.5 6.1 0.00 0.00 0.00 78 1007.8
20240527040629 87 70 2.6 7.8 0.00 0.00 0.00 78 1007.7
20240527040131 87 63 3.5 8.7 0.00 0.00 0.00 78 1007.7
20240527035630 87 276 4.3 8.7 0.00 0.00 0.00 77 1007.6
20240527035130 87 243 2.6 5.2 0.00 0.00 0.00 77 1007.5
20240527034630 87 257 2.6 7.0 0.00 0.00 0.00 76 1007.5
20240527034131 87 333 3.5 8.7 0.00 0.00 0.00 76 1007.5
20240527033630 87 117 4.3 8.7 0.00 0.00 0.00 76 1007.6
20240527033131 87 306 1.7 7.0 0.00 0.00 0.00 76 1007.7
20240527032630 88 324 1.7 9.6 0.00 0.00 0.00 75 1007.5
20240527032132 88 219 4.3 9.6 0.00 0.00 0.00 75 1007.2
20240527031630 88 255 3.5 10.4 0.00 0.00 0.00 74 1007.2
20240527031130 88 203 3.5 10.4 0.00 0.00 0.00 74 1007.0
20240527030630 88 289 3.5 11.3 0.00 0.00 0.00 74 1006.6
20240527030131 88 107 5.2 11.3 0.00 0.00 0.00 74 1006.4
20240527025924 88 74 5.2 8.7 0.00 0.00 0.00 74 1006.5
20240527025129 88 203 4.3 9.6 0.00 0.00 0.00 73 1006.3
20240527024628 89 232 5.2 9.6 0.00 0.00 0.00 73 1006.4
20240527024129 89 77 4.3 11.3 0.00 0.00 0.00 73 1006.3
20240527023629 89 44 3.5 11.3 0.00 0.00 0.00 72 1006.3
20240527023134 89 53 5.2 10.4 0.00 0.00 0.00 72 1006.4
20240527022633 89 303 4.3 11.3 0.00 0.00 0.00 72 1006.5
20240527022132 89 18 4.3 11.3 0.00 0.00 0.00 71 1006.3
20240527021633 90 291 5.2 9.6 0.00 0.00 0.00 71 1006.1
20240527021424 90 310 5.2 10.4 0.00 0.00 0.00 71 1006.2
20240527020631 90 86 4.3 10.4 0.00 0.00 0.00 71 1006.1
20240527020132 90 145 3.5 8.7 0.00 0.00 0.00 70 1006.1
20240527015645 91 74 2.6 7.8 0.00 0.00 0.00 70 1006.0
20240527015132 91 301 5.2 7.8 0.00 0.00 0.00 70 1006.0
20240527014634 91 359 4.3 8.7 0.00 0.00 0.00 69 1006.0
20240527014133 91 77 4.3 8.7 0.00 0.00 0.00 69 1005.8
20240527013707 91 165 4.3 9.6 0.00 0.00 0.00 69 1005.7
20240527012941 92 136 5.2 7.8 0.00 0.00 0.00 69 1005.6
20240527012130 92 101 5.2 8.7 0.00 0.00 0.00 68 1005.4
20240527011629 92 272 4.3 10.4 0.00 0.00 0.00 68 1005.4
20240527011421 92 263 4.3 11.3 0.00 0.00 0.00 68 1005.5
20240527010629 93 191 5.2 11.3 0.00 0.00 0.00 67 1005.4
20240527010130 93 30 4.3 9.6 0.00 0.00 0.00 67 1005.4
20240527005716 94 74 4.3 10.4 0.00 0.00 0.00 66 1005.3
20240527004632 94 59 3.5 13.9 0.00 0.00 0.00 65 1005.0
20240527004132 95 76 3.5 13.9 0.00 0.00 0.00 64 1004.8
20240527003628 95 257 3.5 7.0 0.00 0.00 0.00 64 1004.7
20240527003130 95 176 3.5 9.6 0.00 0.00 0.00 64 1004.6
20240527002717 96 274 4.3 9.6 0.00 0.00 0.00 63 1004.6
20240527001806 96 14 3.5 7.8 0.00 0.00 0.00 62 1004.6
20240527000130 97 35 5.2 9.6 0.00 0.00 0.00 61 1004.4
20240526235631 97 304 5.2 11.3 0.00 0.00 0.00 61 1004.1
20240526235131 98 359 4.3 11.3 0.00 0.00 0.00 60 1004.3
20240526234630 98 224 1.7 12.2 0.00 0.00 0.00 60 1004.1
20240526234421 98 86 4.3 12.2 0.00 0.00 0.00 60 1004.1
20240526233629 98 162 4.3 7.8 0.00 0.00 0.00 59 1004.1
20240526233133 99 283 4.3 7.8 0.00 0.00 0.00 59 1003.9
20240526232921 99 33 4.3 7.8 0.00 0.00 0.00 59 1003.9
20240526232132 99 274 2.6 7.0 0.00 0.00 0.00 58 1003.8
20240526231922 99 105 1.7 7.0 0.00 0.00 0.00 58 1003.6
20240526231421 99 231 2.6 7.8 0.00 0.00 0.00 59 1003.8
20240526230920 99 340 4.3 7.8 0.00 0.00 0.00 59 1003.8
20240526230419 100 254 3.5 7.8 0.00 0.00 0.00 58 1003.8
20240526225921 100 153 4.3 7.0 0.00 0.00 0.00 58 1003.7
20240526225129 100 181 3.5 8.7 0.00 0.00 0.00 58 1003.7
20240526224631 100 239 4.3 8.7 0.00 0.00 0.00 58 1003.6
20240526224130 100 143 3.5 8.7 0.00 0.00 0.00 58 1003.7
20240526223628 100 359 4.3 8.7 0.00 0.00 0.00 58 1003.7
20240526223129 100 220 4.3 7.8 0.00 0.00 0.00 58 1003.7
20240526222630 100 12 5.2 7.8 0.00 0.00 0.00 58 1003.8
20240526222130 100 279 3.5 8.7 0.00 0.00 0.00 57 1003.7
20240526221628 101 43 3.5 8.7 0.00 0.00 0.00 57 1003.7
20240526221123 101 0 3.5 9.6 0.00 0.00 0.00 57 1003.7
20240526220618 101 209 5.2 9.6 0.00 0.00 0.00 56 1003.6
20240526220117 101 278 4.3 8.7 0.00 0.00 0.00 57 1003.8
20240526215908 101 82 3.5 9.6 0.00 0.00 0.00 57 1003.7
20240526215110 101 245 3.5 7.8 0.00 0.00 0.00 57 1003.7
20240526214612 101 276 2.6 0.0 0.00 0.00 0.00 57 1003.7
20240526213550 101 174 4.3 9.6 0.00 0.00 0.00 56 1003.7
20240526212602 101 352 4.3 0.0 0.00 0.00 0.00 56 1003.8
20240526212113 101 46 3.5 0.0 0.00 0.00 0.00 55 1003.6
20240526211511 101 86 3.5 4.3 0.00 0.00 0.00 56 1003.8
20240526211020 102 4 2.6 7.0 0.00 0.00 0.00 55 1003.6
20240526210804 101 240 2.6 7.8 0.00 0.00 0.00 55 1003.8
20240526210357 102 4 3.5 8.7 0.00 0.00 0.00 55 1003.9
20240526205305 101 333 4.3 11.3 0.00 0.00 0.00 55 1003.9
20240526204805 102 335 2.6 11.3 0.00 0.00 0.00 54 1004.0
20240526204641 102 356 3.5 12.2 0.00 0.00 0.00 55 1004.0
20240526203305 102 227 4.3 7.8 0.00 0.00 0.00 54 1003.9
20240526202804 102 278 2.6 7.8 0.00 0.00 0.00 55 1004.0
20240526202335 101 264 4.3 7.8 0.00 0.00 0.00 55 1004.1
20240526201555 102 202 3.5 9.6 0.00 0.00 0.00 54 1004.1
20240526200802 102 101 5.2 9.6 0.00 0.00 0.00 53 1004.1
20240526200302 102 258 6.1 10.4 0.00 0.00 0.00 53 1004.2